INMARSAT 3-F2

Last updated on June 17, 2019, 3:36 a.m. UTC

1 24307U 96053A   19167.60943255  .00000117  00000-0  00000+0 0  9995
2 24307   4.1267  74.0032 0007131 358.5533 262.6477  0.99991699 83374
UTC
Height (km)
Latitude
Longitude
Inclination
Orbital Period
UTC large
Height (km)
Speed (km/s)
/
Latitude / Longitude
Inclination (degrees)
Orbital Period (minutes)
Azimuth
Elevation
Range (km)
Doppler Factor
iOS Compass Heading
iOS Angle

Next 30 passes for location: Hong Kong

Rise time Rise Azimuth (degrees) Set time Set Azimuth (degrees) Duration Max altitude (degrees)

No matching passes for this satellites